This is the latest recevied weather packets stored in our database for station/object IW3HBX-13. If no packets are shown the sender has not sent any weather packets the latest 10 day(s).
| Time | Temp. | Humidity | Pressure | Rain* | Wind** | Luminosity | Snow |
|---|---|---|---|---|---|---|---|
| 1777581367 | 12.22° C | 55% | 1026.2 hPa | 0 mm | - | 0 W/m² | - |
| 1777581007 | 12.78° C | 54% | 1026.2 hPa | 0 mm | - | 0 W/m² | - |
| 1777580649 | 12.78° C | 54% | 1026.2 hPa | 0 mm | - | 0 W/m² | - |
| 1777580287 | 12.78° C | 52% | 1026.1 hPa | 0 mm | - | 0 W/m² | - |
| 1777579930 | 12.78° C | 51% | 1026 hPa | 0 mm | - | 0 W/m² | - |
| 1777579569 | 12.78° C | 52% | 1025.9 hPa | 0 mm | - | 0 W/m² | - |
| 1777578850 | 13.33° C | 52% | 1025.7 hPa | 0 mm | - | 0 W/m² | - |
| 1777578487 | 13.33° C | 51% | 1025.6 hPa | 0 mm | - | 0 W/m² | - |
| 1777578129 | 13.33° C | 52% | 1025.5 hPa | 0 mm | - | 0 W/m² | - |
| 1777577770 | 13.33° C | 50% | 1025.5 hPa | 0 mm | - | 0 W/m² | - |
| 1777577407 | 13.89° C | 50% | 1025.3 hPa | 0 mm | - | 0 W/m² | - |
| 1777577047 | 13.33° C | 51% | 1025.3 hPa | 0 mm | - | 0 W/m² | - |
| 1777576689 | 13.33° C | 54% | 1025.3 hPa | 0 mm | - | 0 W/m² | - |
| 1777576327 | 13.33° C | 49% | 1025.2 hPa | 0 mm | - | 0 W/m² | - |
| 1777575967 | 13.89° C | 47% | 1025.1 hPa | 0 mm | - | 0 W/m² | - |
| 1777575247 | 14.44° C | 45% | 1024.9 hPa | 0 mm | - | 0 W/m² | - |
| 1777574887 | 15° C | 44% | 1024.9 hPa | 0 mm | - | 0 W/m² | - |
| 1777574527 | 15° C | 42% | 1024.7 hPa | 0 mm | - | 0 W/m² | - |
| 1777574167 | 15° C | 42% | 1024.7 hPa | 0 mm | - | 0 W/m² | - |
| 1777573810 | 15° C | 42% | 1024.6 hPa | 0 mm | - | 1 W/m² | - |
| 1777573447 | 15° C | 42% | 1024.6 hPa | 0 mm | - | 2 W/m² | - |
| 1777573088 | 15.56° C | 42% | 1024.7 hPa | 0 mm | - | 3 W/m² | - |
| 1777572729 | 15.56° C | 40% | 1024.5 hPa | 0 mm | - | 5 W/m² | - |
| 1777572367 | 15.56° C | 40% | 1024.5 hPa | 0 mm | - | 8 W/m² | - |
| 1777571649 | 16.67° C | 38% | 1024.5 hPa | 0 mm | - | 16 W/m² | - |
* Rain latest hour (hover to see other rain measurements)
** Current wind speed in m/s (hover to see current wind gust speed)